Regional Weather Roundup
Issued by NWS New Orleans/Baton Rouge, LA

Home | Current Version | Previous Version | Text Only | Print | Product List | Glossary On
Versions: 1 2 3 4 5 6 7 8 9 10 11 12 13 14 15 16 17 18 19 20 21 22 23 24 25 26 27 28 29 30 31 32 33 34 35 36 37 38 39 40 41 42 43 44 45 46 47 48 49 50
933
ASUS44 KLIX 260113
RWRLIX
NEW ORLEANS REGIONAL WEATHER ROUNDUP
NATIONAL WEATHER SERVICE NEW ORLEANS LA
800 PM CDT TUE APR 25 2017

NOTE: "FAIR" INDICATES FEW OR NO CLOUDS BELOW 12,000 FEET WITH NO
      SIGNIFICANT WEATHER AND/OR OBSTRUCTIONS TO VISIBILITY.
      SKY/WX - SKY CONDITION AND SIGNIFICANT WEATHER.
      TMP - AIR TEMPERATURE.     DP    - DEWPOINT TEMPERATURE.
      RH  - RELATIVE HUMIDITY.   PRES  - PRESSURE.
      HI  - HEAT INDEX.          WCI   - WIND CHILL INDEX.

*  THESE STATIONS ARE NOT NWS OR FAA STATIONS AND ARE NOT UNDER
   NWS QUALITY CONTROL.

LAZ038-040-048-061>063-065>067-069-260200-
SOUTHEAST LOUISIANA

CITY           SKY/WX    TMP DP  RH WIND       PRES   REMARKS
N.O. INTL ARPT PTCLDY    70  59  68 S9        29.75S
N.O. LAKEFRONT CLEAR     73  59  61 S14       29.75S
N.O. DOWNTOWN*   N/A     75  57  53 S8          N/A
RESERVE*       NOT AVBL
SLIDELL        CLEAR     71  60  68 S7        29.74S
BATON ROUGE    CLEAR     74  60  61 S9        29.71S
BOOTHVILLE     CLEAR     70  60  70 S9        29.78S
BELLE CHASSE   PTCLDY    68  60  75 S8        29.75S
BOGALUSA*      NOT AVBL
GALLIANO*      CLOUDY    69  58  66 S6        29.76S
NEW ROADS*     MOCLDY    72  62  71 S6        29.70S
GONZALES*        N/A     71  61  70 S7        29.72S
HAMMOND*       CLEAR     70  59  68 S9        29.73R
HOUMA*         PTCLDY    70  62  76 SE8       29.75S
PORT FOURCHON* PTCLDY    72  59  64 S8        29.77R

$$

MSZ070-080>082-260200-
SOUTHERN MISSISSIPPI

CITY           SKY/WX    TMP DP  RH WIND       PRES   REMARKS
MCCOMB         CLEAR     71  58  63 SE9       29.71S
GULFPORT       CLEAR     71  58  63 S8        29.75F
BILOXI         CLEAR     71  57  62 S13       29.76S
PASCAGOULA     CLEAR     68  57  68 S3        29.77S
STENNIS ARPT*  CLEAR     64  55  72 S3        29.75S

$$

COASTAL OBSERVATIONS
LAKE AND NEARSHORE STATIONS

STATION/POSITION TIME  TEMP    WIND        PRES    WAVE
                       AIR SEA DIR/SP/G            HT/PER
                 (UTC) (F)     (DEG/KT/KT) (MB)    (FT/S)
PASCAGOULA       0030   72     200/ 10/ 13 1007.7
WAVELAND YACHT   0030   72 76  190/ 10/ 15 1007.3
GRAND ISLE       0030   72 74  190/  6/ 10 1007.5
SOUTHWEST PASS   0030          190/  6/ 11   N/A
NEW CANAL        0030   73 75  180/  8/ 11 1007.2
SHELL BEACH      0030   71 74  180/  8/ 10 1007.8

OFFSHORE STATIONS

STATION/POSITION TIME  TEMP    WIND        PRES    WAVE
                       AIR SEA DIR/SP/G            HT/PER
                 (UTC) (F)     (DEG/KT/KT) (MB)    (FT/S)
64 S DAUPHIN ISL 0050   72 75  200/  8/ 12 1008.8    1/ 3

$$





USA.gov is the U.S. government's official web portal to all federal, state and local government web resources and services.